Regional Weather Roundup
Issued by NWS

Home | Current Version | Previous Version | Graphics & Text | Print | Product List | Glossary On
Versions: 1 2 3 4 5 6 7 8 9 10 11 12 13 14 15 16 17 18 19 20 21 22 23 24 25 26 27 28 29 30 31 32 33 34 35 36 37 38 39 40 41 42 43 44 45 46 47 48 49 50
370
ASUS45 KABQ 271501
RWRNM
NEW MEXICO REGIONAL WEATHER ROUNDUP
NATIONAL WEATHER SERVICE ALBUQUERQUE NM
800 AM MST MON FEB 27 2017

NOTE: "FAIR" MEANS FEW OR NO CLOUDS BELOW 12,000 FEET AGL WITH NO
       SIGNIFICANT WEATHER OR OBSTRUCTIONS TO VISION.

      THIS PRODUCT IS RELEASED AS TWO VERSIONS.  ONE VERSION NEAR
      THE TOP OF THE HOUR CONTAINING PRELIMINARY DATA FROM ALBUQUERQUE
      AND OTHER STATIONS.  A FINAL VERSION WITH ADDITIONAL DATA IS
      ISSUED ABOUT 10 MINUTES AFTER THE HOUR.

NMZ501-503-504-510>518-271600-
NORTHWEST PLATEAU/NORTHCENTRAL MOUNTAINS

CITY           SKY/WX    TMP DP  RH WIND       PRES   REMARKS
FARMINGTON     PTSUNNY   33  19  56 E9        29.86R WCI  25
LOS ALAMOS     FAIR      29  21  74 SE5       29.92S WCI  23
SANTA FE       PTSUNNY   34  22  61 CALM      29.93R
TAOS           CLOUDY    32  14  47 SW8       29.91R WCI  25
ANGEL FIRE     LGT SNOW  27  20  74 SW20      29.89R WCI  13

$$
NMZ402-403-502-505>509-271600-
WESTCENTRAL MOUNTAINS/SOUTHWEST MOUNTAINS

CITY           SKY/WX    TMP DP  RH WIND       PRES   REMARKS
GALLUP         CLOUDY    35  24  64 SW23G30   29.92R WCI  23
GRANTS         FAIR      30  24  77 S6        29.96R WCI  24
SILVER CITY    FAIR      41  28  60 N13       30.03R

$$
NMZ407-409-411-412-271600-
SOUTHERN DESERTS

CITY           SKY/WX    TMP DP  RH WIND       PRES   REMARKS
DEMING         FAIR      42  29  59 W9        30.02R
LAS CRUCES     FAIR      47  25  42 CALM      30.03R
HOLLOMAN AFB   FAIR      47  22  37 S7        30.04R
ALAMOGORDO     FAIR      48  25  40 S8        30.01S
T OR C         FAIR      42  25  50 E3        29.95S

$$
NMZ519>523-271600-
CENTRAL VALLEYS/CENTRAL HIGHLANDS

CITY           SKY/WX    TMP DP  RH WIND       PRES   REMARKS
ALBUQUERQUE    FAIR      34  24  67 SE6       29.95R WCI  29
DOUBLE EAGLE   MOSUNNY   32  25  74 VRB5      29.95R WCI  27
MORIARTY ARPT  FAIR      34  27  76 NE5       29.94S WCI  30
CLINES CORNERS FAIR      34  20  56 W20       29.93R WCI  23
BELEN          FAIR      32  25  74 CALM      29.96R
SOCORRO        FAIR      36  25  64 CALM      29.97R

$$
NMZ524>526-539-540-271600-
SOUTHCENTRAL MOUNTAINS

CITY           SKY/WX    TMP DP  RH WIND       PRES   REMARKS
RUIDOSO        NOT AVBL

$$
NMZ527>531-271600-
NORTHEAST HIGHLANDS/NORTHEAST PLAINS

CITY           SKY/WX    TMP DP  RH WIND       PRES   REMARKS
LAS VEGAS      FAIR      37  18  46 SW18G30   29.87R WCI  27
RATON          FAIR      28  12  51 NE6       29.79R WCI  22
CLAYTON        FAIR      36  21  54 W13       29.80S WCI  27

$$
NMZ532>537-271600-
EASTCENTRAL PLAINS

CITY           SKY/WX    TMP DP  RH WIND       PRES   REMARKS
TUCUMCARI      FAIR      43  26  51 SW13      29.87R
CANNON AFB     NOT AVBL
CLOVIS AIRPORT FAIR      45  27  49 SW12      29.91R

$$
NMZ028-029-538-271600-
SOUTHEAST PLAINS

CITY           SKY/WX    TMP DP  RH WIND       PRES   REMARKS
ROSWELL        FAIR      38  23  55 N5        29.94R WCI  34
ARTESIA        FAIR      39  27  60 SE3       29.94S
CARLSBAD       FAIR      50  24  36 SE6       29.95R
HOBBS          SUNNY     50  23  34 SW7       29.97R


$$




USA.gov is the U.S. government's official web portal to all federal, state and local government web resources and services.